Year,Month,Day,Hour,Minute,Value (Times are PST for temperature in C)
2022,01,30,14,18,8.80
2022,01,30,14,19,8.80
2022,01,30,14,20,8.80
2022,01,30,14,21,8.80
2022,01,30,14,22,8.80
2022,01,30,14,23,8.80
2022,01,30,14,24,8.80
2022,01,30,14,25,8.80
2022,01,30,14,26,8.80
2022,01,30,14,27,8.80
2022,01,30,14,28,8.80
2022,01,30,14,29,8.80
2022,01,30,14,30,8.80
2022,01,30,14,31,8.80
2022,01,30,14,32,8.80
2022,01,30,14,33,8.80
2022,01,30,14,34,8.80
2022,01,30,14,35,8.80
2022,01,30,14,36,8.80
2022,01,30,14,37,8.80
2022,01,30,14,38,8.80
2022,01,30,14,39,8.80
2022,01,30,14,40,8.80
2022,01,30,14,41,8.80
2022,01,30,14,42,8.80
2022,01,30,14,43,8.80
2022,01,30,14,44,8.80
2022,01,30,14,45,8.80
2022,01,30,14,46,8.80
2022,01,30,14,47,8.80
2022,01,30,14,48,8.80
2022,01,30,14,49,8.80
2022,01,30,14,50,8.80
2022,01,30,14,51,8.80
2022,01,30,14,52,8.90
2022,01,30,14,53,8.90
2022,01,30,14,54,8.90
2022,01,30,14,55,8.90
2022,01,30,14,56,8.90
2022,01,30,14,57,8.90
2022,01,30,14,58,8.90
2022,01,30,14,59,8.90
2022,01,30,15,00,8.90
2022,01,30,15,01,8.90
2022,01,30,15,02,9.00
2022,01,30,15,03,9.00
2022,01,30,15,04,9.00
2022,01,30,15,05,9.00
2022,01,30,15,06,9.10
2022,01,30,15,07,9.10
2022,01,30,15,08,9.10
2022,01,30,15,09,9.10
2022,01,30,15,10,9.10
2022,01,30,15,11,9.10
2022,01,30,15,12,9.10
2022,01,30,15,13,9.10
2022,01,30,15,14,9.10
2022,01,30,15,15,9.10
2022,01,30,15,16,9.10
2022,01,30,15,17,9.10
2022,01,30,15,18,9.10
2022,01,30,15,19,9.10
2022,01,30,15,20,9.10
2022,01,30,15,21,9.10
2022,01,30,15,22,9.20
2022,01,30,15,23,9.30
2022,01,30,15,24,9.30
2022,01,30,15,25,9.30
2022,01,30,15,26,9.30
2022,01,30,15,27,9.30
2022,01,30,15,28,9.30
2022,01,30,15,29,9.30
2022,01,30,15,30,9.30
2022,01,30,15,31,9.30
2022,01,30,15,32,9.30
2022,01,30,15,33,9.30
2022,01,30,15,34,9.30
2022,01,30,15,35,9.30
2022,01,30,15,36,9.30
2022,01,30,15,37,9.30
2022,01,30,15,38,9.30
2022,01,30,15,39,9.30
2022,01,30,15,40,9.30
2022,01,30,15,41,9.30
2022,01,30,15,42,9.40
2022,01,30,15,43,9.40
2022,01,30,15,44,9.40
2022,01,30,15,45,9.40
2022,01,30,15,46,9.40
2022,01,30,15,47,9.40
2022,01,30,15,48,9.40
2022,01,30,15,49,9.30
2022,01,30,15,50,9.30
2022,01,30,15,51,9.30
2022,01,30,15,52,9.30
2022,01,30,15,53,9.30
2022,01,30,15,54,9.30
2022,01,30,15,55,9.30
2022,01,30,15,56,9.30
2022,01,30,15,57,9.30
2022,01,30,15,58,9.30
2022,01,30,15,59,9.30
2022,01,30,16,00,9.30
2022,01,30,16,01,9.30
2022,01,30,16,02,9.30
2022,01,30,16,03,9.30
2022,01,30,16,04,9.30
2022,01,30,16,05,9.30
2022,01,30,16,06,9.20
2022,01,30,16,07,9.30
2022,01,30,16,08,9.30
2022,01,30,16,09,9.30
2022,01,30,16,10,9.30
2022,01,30,16,11,9.40
2022,01,30,16,12,9.40
2022,01,30,16,13,9.40
2022,01,30,16,14,9.40
2022,01,30,16,15,9.30
2022,01,30,16,16,9.30
2022,01,30,16,17,9.20
2022,01,30,16,18,9.10
2022,01,30,16,19,8.90
2022,01,30,16,20,8.80
2022,01,30,16,21,8.60
2022,01,30,16,22,8.60
2022,01,30,16,23,8.40
2022,01,30,16,24,8.20
2022,01,30,16,25,8.10
2022,01,30,16,26,8.00
2022,01,30,16,27,7.90
2022,01,30,16,28,7.60
2022,01,30,16,29,7.60
2022,01,30,16,30,7.60
2022,01,30,16,31,7.60
2022,01,30,16,32,7.60
2022,01,30,16,33,7.60
2022,01,30,16,34,7.60
2022,01,30,16,35,7.60
2022,01,30,16,36,7.60
2022,01,30,16,37,7.60
2022,01,30,16,38,7.60
2022,01,30,16,39,7.60
